OpenBCM V1.13 (Linux)

Packet Radio Mailbox

DB0FHN

[JN59NK Nuernberg]

 Login: GUEST





  
LU9DCE > KEP      15.08.19 20:34l 239 Lines 11920 Bytes #999 (0) @ WW
BID : 29998_LU9DCE
Read: DJ6UX GUEST
Subj: TLE 15 08
Path: DB0FHN<DB0BLO<DB0ERF<IZ3LSV<IW0QNL<JH4XSY<N3HYM<LU9DCE
Sent: 190815/1801Z 29998@LU9DCE.TOR.BA.ARG.SOAM LinBPQ6.0.18

            __    _  _  ___  ____   ___  ____    ____  ____  ____
           (  )  / )( \/ _ \(    \ / __)(  __)  (  _ \(  _ \/ ___)
           / (_/\) \/ (\__  )) D (( (__  ) _)    ) _ ( ) _ (\___ \
           \____/\____/(___/(____/ \___)(____)  (____/(____/(____/
               ESTACION DE PACKET RADIO - BUENOS AIRES (GF05OM)
                   BOLETINES INFORMATIVOS PROGRAMADOS (BIP)
                  SLACKWARE LINUX - HELLOCODELINUX@GMAIL.COM
                          https://slacko.home.blog
+----------------------------------------------------------------------------+
OSCAR 7
1  7530U 74089B   19227.16445786 -.00000041  00000-0  25737-4 0  9999
2  7530 101.7496 194.2473 0011726 235.7947 192.7494 12.53639282 47726
OSCAR 11 (UoSAT 2)
1 14781U 84021B   19226.91309204 +.00000049 +00000-0 +12162-4 0  9993
2 14781 097.6086 248.9173 0009734 125.9834 234.2285 14.83100141886245
OSCAR 19 (LUSAT)
1 20442U 90005G   19226.78763261 -.00000010  00000-0  12831-4 0  9997
2 20442  98.6507 168.7002 0011530 347.1190  12.9697 14.32930552544559
EYESAT A
1 22825U 93061C   19226.94248619 -.00000016 +00000-0 +11881-4 0  9992
2 22825 098.9065 216.8951 0008205 184.8429 175.2674 14.30064193349864
ITAMSAT
1 22826U 93061D   19227.21062068 -.00000007  00000-0  14999-4 0  9999
2 22826  98.9005 217.1537 0008972 173.1011 187.0295 14.30398092350378
RADIO ROSTO
1 23439U 94085A   19226.89881050 -.00000055 +00000-0 -35426-3 0  9991
2 23439 064.8190 023.6110 0146034 102.1313 259.6013 11.27568725014345
JAS 2
1 24278U 96046B   19227.22747068 -.00000049  00000-0 -17195-4 0  9997
2 24278  98.5454  12.8480 0351361  90.8472 273.2935 13.53092836135585
TECHSAT 1B
1 25397U 98043D   19227.39037777 -.00000028  00000-0  71825-5 0  9993
2 25397  98.6905 166.8426 0000768 166.8044 193.3155 14.23668891 96086
ISS (ZARYA)
1 25544U 98067A   19227.51595196 -.01202759  00000-0 -22905-1 0  9999
2 25544  51.6354  66.9218 0007059 286.6517 114.9120 15.50214684184461
PCSAT
1 26931U 01043C   19227.38961289 -.00000038  00000-0  17130-4 0  9994
2 26931  67.0496 214.7907 0007445 274.5313  85.4937 14.30549421933228
SAUDISAT 1C
1 27607U 02058C   19227.22281230 -.00000062  00000-0  12299-4 0  9994
2 27607  64.5532 233.7015 0079082 245.4621 113.8223 14.75564546895526
CUTE-1
1 27844U 03031E   19227.27294135  .00000029  00000-0  32723-4 0  9998
2 27844  98.6842 234.6256 0008972 219.2548 140.7980 14.22189470836474
CUBESAT XI 4
1 27848U 03031J   19226.92961337 +.00000023 +00000-0 +30202-4 0  9992
2 27848 098.6918 234.7996 0008711 233.0632 126.9748 14.21783335836245
MOZHAYETS 4
1 27939U 03042A   19227.35029345  .00000061  00000-0  19611-4 0  9990
2 27939  98.0487   2.0671 0011901 242.2883 117.7129 14.66796205848997
CUBESAT XI 5
1 28895U 05043F   19226.93257445 +.00000050 +00000-0 +18489-4 0  9992
2 28895 097.9669 007.7263 0017185 166.5143 193.6522 14.63681749735623
CUTE-1.7+APD II
1 32785U 08021C   19226.83226380 +.00000105 +00000-0 +16950-4 0  9999
2 32785 097.5513 223.8567 0014667 075.3857 284.8985 14.88330387612119
DELFI C3
1 32789U 08021G   19226.72108145  .00000333  00000-0  26208-4 0  9999
2 32789  97.4605 274.6549 0010525 293.0092  67.0026 15.07047266615558
SEEDS
1 32791U 08021J   19227.02292693  .00000286  00000-0  34296-4 0  9991
2 32791  97.5288 230.0685 0014645  51.3948 308.8580 14.90849402612650
YUBELEINY
1 32953U 08025A   19227.27104119  .00000020  00000-0  75656-4 0  9998
2 32953  82.5004 108.9619 0019809   5.8561 354.2738 12.43090779509467
PRISM (HITOMI)
1 33493U 09002B   19226.75721137  .00000004  00000-0  59328-5 0  9992
2 33493  98.1207 149.8761 0015419   0.5546 359.5688 14.96702146573680
KKS-1 (KISEKI)
1 33499U 09002H   19227.18328897  .00000055  00000-0  16142-4 0  9994
2 33499  98.3472  67.7152 0009839  30.7193 329.4589 14.75454580567701
SWISSCUBE
1 35932U 09051B   19227.03654385  .00000083  00000-0  29923-4 0  9992
2 35932  98.5933  34.7045 0007465 359.4732   0.6456 14.56299913525124
BEESAT
1 35933U 09051C   19227.10475045  .00000057  00000-0  23833-4 0  9990
2 35933  98.5957  36.5584 0005988  15.0275 345.1099 14.56387138525244
ITUPSAT 1
1 35935U 09051E   19227.40178908  .00000038  00000-0  20019-4 0  9995
2 35935  98.6067  37.0982 0008177   8.0731 352.0595 14.55545046525037
XIWANG-1 (HOPE-1)
1 36122U 09072B   19226.66322307 -.00000059 +00000-0 -43302-4 0  9993
2 36122 100.0745 226.3666 0007217 212.6396 147.4273 13.16350214464378
TISAT 1
1 36799U 10035E   19227.39234364  .00000205  00000-0  26844-4 0  9993
2 36799  98.1627  21.4818 0010972 254.8742 105.1261 14.91133504493366
JUGNU
1 37839U 11058B   19226.52961984 +.00000300 +00000-0 +17858-4 0  9995
2 37839 019.9625 350.1065 0018773 233.7905 205.5600 14.12655347405194
SRMSAT
1 37841U 11058D   19226.50727934  .00000293  00000-0  15741-4 0  9991
2 37841  19.9733  48.1898 0011906 100.4053 279.9444 14.10636286404728
M-CUBED/EXP-1 PRIME
1 37855U 11061F   19227.02113625  .00000425  00000-0  29600-4 0  9990
2 37855 101.7101 152.0441 0173054 266.8888  91.2511 15.05530793425406
HORYU 2
1 38340U 12025D   19226.66632078  .00000106  00000-0  23443-4 0  9993
2 38340  98.3253 266.9546 0010324 306.6415  53.3843 14.75736874389562
STRAND 1
1 39090U 13009E   19227.16747782  .00000021  00000-0  22433-4 0  9998
2 39090  98.4839  72.1484 0010231 114.7306 245.4945 14.35092904338632
SOMP
1 39134U 13015E   19227.31692455  .00000799  00000-0  45702-4 0  9993
2 39134  64.8622 193.7296 0034159 294.9230  64.8349 15.20246855349354
BEESAT 3
1 39135U 13015F   19227.40734118  .00000461  00000-0  32667-4 0  9999
2 39135  64.8681 212.5514 0029166 308.4021  51.4486 15.17541528349001
BEESAT 2
1 39136U 13015G   19227.40026756  .00000299  00000-0  25042-4 0  9990
2 39136  64.8672 216.5638 0022060 302.8624  57.0378 15.16959007348922
CUBEBUG 1
1 39153U 13018D   19227.27584102  .00000077  00000-0  16984-4 0  9990
2 39153  97.9804 325.0826 0017219  16.8998 343.2784 14.80582609340334
ZACUBE
1 39417U 13066B   19226.99395518  .00000114  00000-0  20780-4 0  9996
2 39417  97.5622 237.2755 0058240 204.7353 155.1066 14.81134628309522
TRITON 1
1 39427U 13066M   19227.39819209  .00000148  00000-0  31813-4 0  9996
2 39427  97.6810 201.2244 0113405 341.5080  18.2019 14.67864018306801
GOMX 1
1 39430U 13066Q   19227.35816345  .00000140  00000-0  33918-4 0  9994
2 39430  97.7503 180.1254 0152482  72.5139 289.2668 14.59270067305013
HUMSAT D
1 39433U 13066T   19226.94715108 +.00000399 +00000-0 +44043-4 0  9993
2 39433 097.5495 272.1009 0032319 108.9757 251.4969 14.92225047310432
CUBEBUG 2
1 39440U 13066AA  19226.90494970 +.00000102 +00000-0 +21430-4 0  9995
2 39440 097.6043 221.9707 0078653 258.9625 100.2732 14.75872709307213
FUNCUBE 1
1 39444U 13066AE  19227.03036747  .00000151  00000-0  24961-4 0  9994
2 39444  97.5599 239.3110 0057548 198.1355 161.7808 14.81957116308421
UWE-3
1 39446U 13066AG  19226.94652344 +.00000123 +00000-0 +23164-4 0  9995
2 39446 097.5822 229.0945 0068720 232.4597 127.0359 14.78407343307139
SPROUT
1 39770U 14029E   19227.28564431  .00000475  00000-0  58647-4 0  9996
2 39770  97.8863 330.2124 0007663 257.2118 102.8238 14.87387499283391
UNISAT 6
1 40012U 14033C   19227.17374595  .00000110  00000-0  23887-4 0  9994
2 40012  97.7503  91.2882 0056833 272.6481  86.8224 14.73994588277155
DUCHIFAT 1
1 40021U 14033M   19227.33987005  .00000311  00000-0  37605-4 0  9994
2 40021  97.9228 152.1242 0011831 215.4130 144.6304 14.90658461280133
QB50P1
1 40025U 14033R   19226.75513898  .00000093  00000-0  15860-4 0  9994
2 40025  97.9037 146.3450 0011228 227.6804 132.3463 14.88964916279819
CHUBUSAT 1
1 40300U 14070C   19227.44099628  .00000327  00000-0  17244-4 0  9996
2 40300  97.3256 300.1587 0018830 209.7022 210.9452 15.22130675264802
NUDT-PHONESAT
1 40900U 15049B   19227.40380110  .00001343  00000-0  60176-4 0  9995
2 40900  97.4378 236.1736 0012685 350.1652 116.5108 15.22929095216448
ZDPS 2A
1 40901U 15049C   19227.36822836  .00000439  00000-0  25014-4 0  9994
2 40901  97.4602 232.3595 0013862   9.4014 101.5848 15.17782575215981
ZDPS 2B
1 40902U 15049D   19227.33481753  .00000848  00000-0  45424-4 0  9992
2 40902  97.4552 229.7825 0013814   6.7275 107.2993 15.17620087215958
XW-2A
1 40903U 15049E   19227.34897256  .00001251  00000-0  31333-4 0  9996
2 40903  97.3346 270.4293 0011996 299.9227 188.9643 15.41988992219134
KAITUO 1A
1 40904U 15049F   19227.38711823  .00000220  00000-0  15151-4 0  9991
2 40904  97.4680 228.4100 0015060  14.1909 120.7896 15.15394889215730
OBJECT G
1 40905U 15049G   19227.37621450  .00000009  00000-0  40540-5 0  9993
2 40905  97.4725 225.8923 0015846   8.7747 126.4845 15.14317827215605
XW-2C
1 40906U 15049H   19227.37132226  .00000159  00000-0  11798-4 0  9990
2 40906  97.4689 228.4967 0014873   5.7010 102.8101 15.15714443215734
XW-2D
1 40907U 15049J   19227.40798116  .00000575  00000-0  33410-4 0  9998
2 40907  97.4671 228.2128 0014350   3.1304 106.5943 15.15908431215750
LILACSAT 2
1 40908U 15049K   19227.44399179 -.00000055  00000-0  56116-6 0  9993
2 40908  97.4802 227.0266 0016194   8.6705 150.1823 15.13824560215547
XW-2F
1 40910U 15049M   19227.31863067  .00000536  00000-0  30197-4 0  9996
2 40910  97.4643 230.1987 0014510 355.6121 132.8316 15.17361274215754
XW-2B
1 40911U 15049N   19227.37686615  .00000250  00000-0  16519-4 0  9990
2 40911  97.4690 228.8395 0014067   4.1155 103.2740 15.15835811215646
KAITUO 1B
1 40912U 15049P   19227.38977600  .00000677  00000-0  34880-4 0  9993
2 40912  97.4501 233.9959 0014348 336.9087 130.4445 15.19682196216075
TIANWANG 1C (TW-1C)
1 40926U 15051B   19227.33812441  .00007579  00000-0  10778-3 0  9994
2 40926  97.1318 273.4592 0008672 147.6516 341.6682 15.56617957219124
